SWA324 KMEM-KPNS

Flight info

Callsign SWA324
Flight time 0h 56m
Altitude 37000
Route PIEPE6 IBUFY SJI
Aircraft B38M/M-SDE1FGHILORVWXY/HB1

Departure

Time 2026-04-24 21:21
Airport Memphis International Airport (KMEM)

Arrival

Time 2026-04-24 22:17
Airport Pensacola International Airport (KPNS)
Time Latitude Longitude Altitude Speed Heading
2026-04-24 21:21 34.98789 -89.98786 4519 ft 177 kts 184°
2026-04-24 21:21 34.97498 -89.98775 5286 ft 192 kts 182°
2026-04-24 21:22 34.96156 -89.98715 6302 ft 190 kts 182°
2026-04-24 21:22 34.94879 -89.98673 7358 ft 184 kts 184°
2026-04-24 21:22 34.93574 -89.98631 8109 ft 198 kts 184°
2026-04-24 21:22 34.92079 -89.98606 8503 ft 229 kts 185°
2026-04-24 21:23 34.90487 -89.98656 9316 ft 225 kts 188°
2026-04-24 21:23 34.88973 -89.98811 10366 ft 212 kts 192°
2026-04-24 21:23 34.87501 -89.98953 11151 ft 216 kts 189°
2026-04-24 21:23 34.85899 -89.99077 11423 ft 246 kts 189°
2026-04-24 21:24 34.84090 -89.99230 11758 ft 271 kts 189°
2026-04-24 21:24 34.82203 -89.99407 12684 ft 269 kts 189°
2026-04-24 21:24 34.80343 -89.99541 13740 ft 270 kts 187°
2026-04-24 21:24 34.78420 -89.99635 14330 ft 285 kts 186°
2026-04-24 21:25 34.76361 -89.99684 14751 ft 306 kts 185°
2026-04-24 21:25 34.74194 -89.99695 15434 ft 314 kts 184°
2026-04-24 21:25 34.71986 -89.99685 16207 ft 321 kts 184°
2026-04-24 21:25 34.69712 -89.99692 16837 ft 331 kts 185°
2026-04-24 21:26 34.67389 -89.99834 17551 ft 336 kts 191°
2026-04-24 21:26 34.65097 -90.00354 18308 ft 337 kts 199°
2026-04-24 21:26 34.62859 -90.01293 18784 ft 345 kts 206°
2026-04-24 21:26 34.61026 -90.02252 19210 ft 352 kts 207°
2026-04-24 21:27 34.60713 -90.02419 19294 ft 353 kts 207°
2026-04-24 21:27 34.58384 -90.03547 19888 ft 360 kts 204°
2026-04-24 21:27 34.56082 -90.04794 20431 ft 364 kts 207°
2026-04-24 21:28 34.53770 -90.05985 21089 ft 368 kts 205°
2026-04-24 21:28 34.51377 -90.07135 21716 ft 372 kts 204°
2026-04-24 21:28 34.48946 -90.08258 22342 ft 376 kts 204°
2026-04-24 21:28 34.46435 -90.09272 22691 ft 390 kts 194°
2026-04-24 21:29 34.43687 -90.09683 22981 ft 403 kts 190°
2026-04-24 21:29 34.40881 -90.10087 23477 ft 408 kts 190°
2026-04-24 21:29 34.38024 -90.10489 23723 ft 419 kts 189°
2026-04-24 21:29 34.35092 -90.10893 24068 ft 425 kts 189°
2026-04-24 21:30 34.32147 -90.11296 24594 ft 427 kts 189°
2026-04-24 21:30 34.29186 -90.11701 25049 ft 430 kts 189°
2026-04-24 21:30 34.26202 -90.12109 25515 ft 433 kts 189°
2026-04-24 21:30 34.23181 -90.12522 25690 ft 443 kts 189°
2026-04-24 21:31 34.20082 -90.12945 25906 ft 450 kts 189°
2026-04-24 21:31 34.16970 -90.13369 26400 ft 451 kts 189°
2026-04-24 21:31 34.13845 -90.13795 26879 ft 452 kts 189°
2026-04-24 21:31 34.10707 -90.14055 27448 ft 454 kts 179°
2026-04-24 21:32 34.07604 -90.13370 28051 ft 457 kts 163°
2026-04-24 21:32 34.04669 -90.11888 28638 ft 457 kts 159°
2026-04-24 21:32 34.01763 -90.10339 29200 ft 456 kts 158°
2026-04-24 21:32 33.98867 -90.08769 29752 ft 456 kts 158°
2026-04-24 21:33 33.95978 -90.07186 29908 ft 455 kts 158°
2026-04-24 21:33 33.90212 -90.04013 29891 ft 456 kts 157°
2026-04-24 21:34 33.84436 -90.00837 29890 ft 456 kts 157°
2026-04-24 21:34 33.78561 -89.97612 29883 ft 472 kts 157°
2026-04-24 21:35 33.72559 -89.94321 29893 ft 474 kts 157°
2026-04-24 21:35 33.66563 -89.91038 29879 ft 474 kts 157°
2026-04-24 21:36 33.60543 -89.87748 29890 ft 475 kts 157°
2026-04-24 21:36 33.54557 -89.84481 29890 ft 475 kts 157°
2026-04-24 21:37 33.48544 -89.81205 29892 ft 475 kts 157°
2026-04-24 21:37 33.45520 -89.79559 30150 ft 477 kts 157°
2026-04-24 21:37 33.42505 -89.77918 30653 ft 475 kts 157°
2026-04-24 21:37 33.39493 -89.76282 30857 ft 475 kts 157°
2026-04-24 21:38 33.36493 -89.74653 30893 ft 472 kts 157°
2026-04-24 21:38 33.30520 -89.71413 30889 ft 471 kts 157°
2026-04-24 21:39 33.24548 -89.68179 30876 ft 471 kts 157°
2026-04-24 21:39 33.18567 -89.64944 30883 ft 472 kts 157°
2026-04-24 21:40 33.12582 -89.61713 30877 ft 473 kts 157°
2026-04-24 21:40 33.06570 -89.58471 30881 ft 474 kts 157°
2026-04-24 21:41 33.00559 -89.55235 30882 ft 474 kts 157°
2026-04-24 21:41 32.94541 -89.52000 30890 ft 474 kts 157°
2026-04-24 21:42 32.88525 -89.48771 30879 ft 474 kts 158°
2026-04-24 21:42 32.82467 -89.45524 30878 ft 479 kts 158°
2026-04-24 21:43 32.76387 -89.42271 30879 ft 479 kts 158°
2026-04-24 21:43 32.70346 -89.39042 30865 ft 479 kts 158°
2026-04-24 21:44 32.64260 -89.35795 30840 ft 479 kts 158°
2026-04-24 21:44 32.58163 -89.32549 30814 ft 483 kts 158°
2026-04-24 21:45 32.51977 -89.29258 30809 ft 484 kts 158°
2026-04-24 21:45 32.45866 -89.26012 30829 ft 484 kts 158°
2026-04-24 21:46 32.39720 -89.22752 30879 ft 482 kts 158°
2026-04-24 21:46 32.33623 -89.19524 30866 ft 479 kts 158°
2026-04-24 21:47 32.27514 -89.16294 30886 ft 482 kts 158°
2026-04-24 21:47 32.21390 -89.13061 30887 ft 482 kts 158°
2026-04-24 21:48 32.15266 -89.09832 30890 ft 482 kts 158°
2026-04-24 21:48 32.09140 -89.06607 30899 ft 482 kts 158°
2026-04-24 21:49 32.03006 -89.03383 30901 ft 484 kts 158°
2026-04-24 21:49 31.96846 -89.00150 30902 ft 485 kts 158°
2026-04-24 21:50 31.90680 -88.96918 30907 ft 485 kts 158°
2026-04-24 21:50 31.84516 -88.93693 30909 ft 485 kts 158°
2026-04-24 21:51 31.78396 -88.90495 30905 ft 485 kts 158°
2026-04-24 21:51 31.72200 -88.87262 30915 ft 488 kts 158°
2026-04-24 21:52 31.65996 -88.84029 30916 ft 486 kts 158°
2026-04-24 21:52 31.59817 -88.80815 30917 ft 486 kts 158°
2026-04-24 21:53 31.53708 -88.77641 30456 ft 479 kts 158°
2026-04-24 21:53 31.50648 -88.76053 29802 ft 483 kts 158°
2026-04-24 21:53 31.47574 -88.74459 29160 ft 484 kts 158°
2026-04-24 21:53 31.44486 -88.72859 28657 ft 486 kts 158°
2026-04-24 21:54 31.41387 -88.71254 28158 ft 488 kts 158°
2026-04-24 21:54 31.38271 -88.69642 27625 ft 489 kts 158°
2026-04-24 21:54 31.35155 -88.68031 27105 ft 491 kts 158°
2026-04-24 21:54 31.32027 -88.66414 26590 ft 492 kts 158°
2026-04-24 21:55 31.28886 -88.64792 26069 ft 493 kts 158°
2026-04-24 21:55 31.25743 -88.63171 25560 ft 494 kts 158°
2026-04-24 21:55 31.22589 -88.61545 25044 ft 496 kts 159°
2026-04-24 21:55 31.19429 -88.59917 24534 ft 495 kts 159°
2026-04-24 21:56 31.16326 -88.58319 24044 ft 493 kts 159°
2026-04-24 21:56 31.13157 -88.56689 23533 ft 490 kts 159°
2026-04-24 21:56 31.10093 -88.55114 22957 ft 486 kts 159°
2026-04-24 21:56 31.07010 -88.53530 22446 ft 482 kts 158°
2026-04-24 21:57 31.03951 -88.51959 21959 ft 478 kts 158°
2026-04-24 21:57 31.00919 -88.50404 21473 ft 475 kts 158°
2026-04-24 21:57 30.97901 -88.48856 20992 ft 471 kts 158°
2026-04-24 21:57 30.94911 -88.47324 20516 ft 468 kts 158°
2026-04-24 21:58 30.91937 -88.45801 20042 ft 465 kts 158°
2026-04-24 21:58 30.88983 -88.44289 19573 ft 462 kts 158°
2026-04-24 21:58 30.86053 -88.42791 19105 ft 458 kts 158°
2026-04-24 21:58 30.83147 -88.41307 18644 ft 455 kts 158°
2026-04-24 21:59 30.80261 -88.39832 18174 ft 451 kts 158°
2026-04-24 21:59 30.77405 -88.38358 17606 ft 448 kts 155°
2026-04-24 21:59 30.74865 -88.36298 17138 ft 447 kts 136°
2026-04-24 21:59 30.72904 -88.33504 16438 ft 447 kts 124°
2026-04-24 22:00 30.71394 -88.30368 15588 ft 453 kts 115°
2026-04-24 22:00 30.70338 -88.27655 15815 ft 311 kts 113°
2026-04-24 22:00 30.69506 -88.25367 15523 ft 308 kts 111°
2026-04-24 22:00 30.68689 -88.22959 14738 ft 327 kts 110°
2026-04-24 22:01 30.67880 -88.20468 14247 ft 333 kts 109°
2026-04-24 22:01 30.67077 -88.17942 13882 ft 332 kts 109°
2026-04-24 22:01 30.66287 -88.15427 13525 ft 331 kts 109°
2026-04-24 22:01 30.65496 -88.12891 13018 ft 339 kts 109°
2026-04-24 22:02 30.64687 -88.10285 12487 ft 346 kts 109°
2026-04-24 22:02 30.63873 -88.07660 12118 ft 344 kts 109°
2026-04-24 22:02 30.63068 -88.05066 11752 ft 341 kts 109°
2026-04-24 22:02 30.62267 -88.02485 11401 ft 338 kts 109°
2026-04-24 22:03 30.61468 -87.99914 11013 ft 337 kts 110°
2026-04-24 22:03 30.60684 -87.97392 10643 ft 336 kts 110°
2026-04-24 22:03 30.59894 -87.94854 10240 ft 330 kts 110°
2026-04-24 22:03 30.59127 -87.92391 9863 ft 319 kts 110°
2026-04-24 22:04 30.58385 -87.90008 9466 ft 309 kts 110°
2026-04-24 22:04 30.57667 -87.87707 9144 ft 299 kts 110°
2026-04-24 22:04 30.56968 -87.85464 8826 ft 292 kts 111°
2026-04-24 22:04 30.56281 -87.83264 8533 ft 288 kts 110°
2026-04-24 22:05 30.55602 -87.81090 8216 ft 286 kts 111°
2026-04-24 22:05 30.54924 -87.78921 7967 ft 287 kts 111°
2026-04-24 22:05 30.54243 -87.76743 7663 ft 288 kts 111°
2026-04-24 22:05 30.53556 -87.74555 7340 ft 289 kts 111°
2026-04-24 22:06 30.52876 -87.72374 7009 ft 285 kts 112°
2026-04-24 22:06 30.52206 -87.70241 6721 ft 278 kts 111°
2026-04-24 22:06 30.51554 -87.68161 6501 ft 270 kts 112°
2026-04-24 22:06 30.50917 -87.66136 6202 ft 265 kts 111°
2026-04-24 22:07 30.50291 -87.64145 5884 ft 261 kts 112°
2026-04-24 22:07 30.49671 -87.62168 5559 ft 260 kts 112°
2026-04-24 22:07 30.49051 -87.60202 5287 ft 259 kts 112°
2026-04-24 22:07 30.48435 -87.58238 5042 ft 259 kts 113°
2026-04-24 22:08 30.47817 -87.56280 4759 ft 259 kts 112°
2026-04-24 22:08 30.47203 -87.54335 4465 ft 255 kts 112°
2026-04-24 22:08 30.46592 -87.52399 4250 ft 255 kts 112°
2026-04-24 22:08 30.45995 -87.50503 4092 ft 244 kts 112°
2026-04-24 22:09 30.45429 -87.48699 3965 ft 236 kts 114°
2026-04-24 22:09 30.44876 -87.46948 3841 ft 225 kts 113°
2026-04-24 22:09 30.44349 -87.45275 3810 ft 219 kts 114°
2026-04-24 22:09 30.43828 -87.43633 3648 ft 216 kts 114°
2026-04-24 22:10 30.43311 -87.42002 3498 ft 215 kts 112°
2026-04-24 22:10 30.43043 -87.40316 3198 ft 214 kts 88°
2026-04-24 22:10 30.43548 -87.38789 3053 ft 202 kts 53°
2026-04-24 22:10 30.44717 -87.37908 2985 ft 206 kts 15°
2026-04-24 22:11 30.46121 -87.37949 2989 ft 202 kts 339°
2026-04-24 22:11 30.47254 -87.38839 2982 ft 196 kts 306°
2026-04-24 22:11 30.47789 -87.40217 2963 ft 189 kts 274°
2026-04-24 22:11 30.47631 -87.41698 3004 ft 181 kts 242°
2026-04-24 22:12 30.46784 -87.42716 2989 ft 177 kts 205°
2026-04-24 22:12 30.45589 -87.42969 3006 ft 178 kts 175°
2026-04-24 22:12 30.44484 -87.42391 2962 ft 182 kts 141°
2026-04-24 22:12 30.43837 -87.41113 2982 ft 191 kts 105°
2026-04-24 22:13 30.43940 -87.39577 3075 ft 193 kts 78°
2026-04-24 22:13 30.44195 -87.38148 3115 ft 174 kts 85°
2026-04-24 22:13 30.44376 -87.36787 2920 ft 168 kts 87°
2026-04-24 22:13 30.44549 -87.35465 2667 ft 165 kts 85°
2026-04-24 22:14 30.44728 -87.34159 2522 ft 163 kts 85°
2026-04-24 22:14 30.44921 -87.32820 2569 ft 174 kts 86°
2026-04-24 22:14 30.45106 -87.31406 2566 ft 180 kts 86°
2026-04-24 22:14 30.45317 -87.29950 2378 ft 184 kts 84°
2026-04-24 22:15 30.45529 -87.28548 2136 ft 169 kts 83°
2026-04-24 22:15 30.45733 -87.27287 1912 ft 152 kts 84°
2026-04-24 22:15 30.45965 -87.26123 1601 ft 144 kts 84°
2026-04-24 22:15 30.46161 -87.25041 1377 ft 131 kts 87°
2026-04-24 22:16 30.46265 -87.24356 1207 ft 130 kts 89°
2026-04-24 22:16 30.46438 -87.23309 1034 ft 135 kts 84°
2026-04-24 22:16 30.46662 -87.22228 787 ft 141 kts 82°
2026-04-24 22:16 30.46860 -87.21091 522 ft 144 kts 84°
2026-04-24 22:17 30.47073 -87.19968 263 ft 139 kts 82°
2026-04-24 22:17 30.47266 -87.18921 101 ft 121 kts 85°
2026-04-24 22:17 30.47388 -87.18219 113 ft 54 kts 78°
2026-04-24 22:17 30.47453 -87.18052 111 ft 9 kts 359°
2026-04-24 22:18 30.47514 -87.18079 111 ft 11 kts 337°
2026-04-24 22:18 30.47538 -87.18138 110 ft 3 kts 257°
2026-04-24 22:18 30.47531 -87.18178 110 ft 7 kts 258°
2026-04-24 22:18 30.47518 -87.18247 110 ft 10 kts 258°
2026-04-24 22:19 30.47502 -87.18340 110 ft 13 kts 258°
2026-04-24 22:19 30.47480 -87.18458 109 ft 17 kts 258°
2026-04-24 22:19 30.47452 -87.18611 108 ft 21 kts 258°
2026-04-24 22:19 30.47419 -87.18788 104 ft 25 kts 258°
2026-04-24 22:20 30.47391 -87.18940 96 ft 7 kts 257°
2026-04-24 22:20 30.47388 -87.19001 97 ft 8 kts 293°
2026-04-24 22:20 30.47421 -87.19057 99 ft 9 kts 304°
2026-04-24 22:20 30.47425 -87.19123 101 ft 9 kts 245°
2026-04-24 22:21 30.47422 -87.19174 99 ft 4 kts 330°
2026-04-24 22:21 30.47442 -87.19175 102 ft 3 kts
2026-04-24 22:21 30.47462 -87.19174 103 ft 3 kts
2026-04-24 22:21 30.47481 -87.19177 104 ft 3 kts 344°
2026-04-24 22:22 30.47491 -87.19180 104 ft 0 kts 345°